Meath Environmental Platform

Observations for Trim Patrick St

Time AQI Temp °C Hum % Pres Pa CO μg/m³ H₂S μg/m³ NO μg/m³ NO₂ μg/m³ O₃ μg/m³ SO₂ μg/m³ PM1 μg/m³ PM2.5 μg/m³ PM10 μg/m³
Saturday 8 August 2026
08:38 1 20.4 62 80,404 0.11 0 3.23 11.88 25.42 2.97 2.86 7.14 7.85
08:37 1 20.3 62 80,626 0.13 0 3.17 12.43 24.23 2.59 2.86 7.14 7.85
08:36 1 20.2 62 80,693 0.13 0 3 12.21 21.13 2.48 3.71 7.88 8.67
08:35 1 20.2 62 80,799 0.11 0 3.04 10.79 25.1 2.52 2.86 7.13 7.85
08:34 1 20.1 62 80,849 0.12 0 3.06 10.57 24.45 2.55 3.71 8.61 9.47
08:33 1 20.1 62 80,909 0.1 0 3.04 10.4 24.51 2.35 3.71 7.87 8.66
08:32 1 20.1 62 80,980 0.1 0 3.04 10.57 22.28 1.93 2.86 7.14 7.85
08:31 1 20 62 81,136 0.14 0 3.17 11.77 21.05 1.92 3.71 8.6 9.46
08:30 1 20 62 81,354 0.13 0 2.98 11.21 23.94 1.85 4.57 8.59 9.45
08:29 1 20 62 81,618 0.12 0 3.06 12.08 22.84 1.71 3.71 7.84 8.63
08:28 1 19.9 62 81,837 0.12 0 3.11 9.03 22.4 1.97 2.86 7.1 7.81
08:27 1 19.9 63 82,148 0.14 0 3.27 11.87 23.79 1.82 2.86 8.56 9.41
08:26 1 19.8 63 82,555 0.14 0 3.2 11.65 21.61 1.67 3.71 8.55 9.41
08:25 1 19.8 63 83,205 0.13 0 3.29 10.87 21.44 1.99 3.71 8.54 9.39
08:24 1 19.7 63 84,050 0.15 0 3.2 11.5 21.23 1.34 3.71 8.52 9.37
08:23 1 19.7 63 85,100 0.14 0 3.11 11.43 22.76 1.36 3.71 7.77 8.55
08:22 1 19.6 64 86,161 0.18 0 3.06 12.02 22 1.66 3.71 7.75 8.53
08:21 1 19.6 64 87,102 0.17 0 3.2 13.24 25.75 1.78 4.57 7.75 8.52
08:20 1 19.5 64 87,928 0.16 0 3.01 11.83 21.71 1.99 3.71 8.48 9.33
08:19 1 19.5 64 88,919 0.15 0 3.2 12.51 25.27 1.18 3.71 7.75 8.53